TimeCST,TemperatureF,Dew PointF,Humidity,Sea Level PressureIn,VisibilityMPH,Wind Direction,Wind SpeedMPH,Gust SpeedMPH,PrecipitationIn,Events,Conditions,WindDirDegrees,DateUTC
12:53 AM,30.0,28.0,92,30.39,-9999.0,Calm,Calm,-,N/A,,Clear,0,2012-12-31 06:53:00
1:53 AM,30.9,28.0,89,30.38,-9999.0,Calm,Calm,-,N/A,,Clear,0,2012-12-31 07:53:00
2:53 AM,32.0,28.9,88,30.38,-9999.0,Calm,Calm,-,N/A,,Clear,0,2012-12-31 08:53:00
3:53 AM,33.1,28.0,82,30.35,-9999.0,ESE,5.8,-,N/A,,Clear,120,2012-12-31 09:53:00
4:53 AM,33.1,28.0,82,30.36,-9999.0,Calm,Calm,-,N/A,,Clear,0,2012-12-31 10:53:00
5:53 AM,33.1,27.0,78,30.35,-9999.0,ESE,4.6,-,N/A,,Clear,120,2012-12-31 11:53:00
6:53 AM,30.9,27.0,85,30.36,-9999.0,Calm,Calm,-,N/A,,Clear,0,2012-12-31 12:53:00
7:53 AM,33.1,28.9,85,30.36,-9999.0,Calm,Calm,-,N/A,,Clear,0,2012-12-31 13:53:00
8:53 AM,37.9,28.9,70,30.38,-9999.0,ESE,3.5,-,N/A,,Overcast,120,2012-12-31 14:53:00
9:53 AM,41.0,30.0,65,30.36,-9999.0,SSE,5.8,-,N/A,,Overcast,160,2012-12-31 15:53:00
10:53 AM,43.0,28.9,58,30.33,-9999.0,SSE,4.6,-,N/A,,Overcast,150,2012-12-31 16:53:00
11:53 AM,46.0,30.0,54,30.29,-9999.0,South,6.9,-,N/A,,Overcast,190,2012-12-31 17:53:00
12:53 PM,46.9,28.9,50,30.25,-9999.0,South,9.2,-,N/A,,Overcast,170,2012-12-31 18:53:00
1:53 PM,46.9,32.0,56,30.20,10.0,SSE,10.4,-,N/A,,Overcast,150,2012-12-31 19:53:00
2:53 PM,48.0,30.9,52,30.21,10.0,South,10.4,-,N/A,,Overcast,180,2012-12-31 20:53:00
3:53 PM,48.0,30.9,52,30.22,10.0,South,6.9,-,N/A,,Overcast,190,2012-12-31 21:53:00
4:07 PM,46.4,33.8,62,30.21,10.0,South,5.8,-,N/A,,Overcast,180,2012-12-31 22:07:00
4:53 PM,46.0,34.0,63,30.18,10.0,SSE,8.1,-,N/A,,Overcast,150,2012-12-31 22:53:00
5:16 PM,46.4,33.8,62,30.16,10.0,SE,6.9,-,N/A,,Overcast,140,2012-12-31 23:16:00
5:53 PM,46.9,33.1,59,30.17,10.0,SE,4.6,-,N/A,,Overcast,130,2012-12-31 23:53:00
6:53 PM,46.0,34.0,63,30.16,10.0,SE,6.9,-,N/A,,Mostly Cloudy,130,2013-01-01 00:53:00
7:53 PM,46.0,34.0,63,30.14,10.0,SE,5.8,-,N/A,,Overcast,130,2013-01-01 01:53:00
8:53 PM,46.9,37.9,71,30.09,10.0,SSE,10.4,-,N/A,,Mostly Cloudy,160,2013-01-01 02:53:00
10:53 PM,46.9,41.0,80,30.07,10.0,South,5.8,-,N/A,,Overcast,170,2013-01-01 04:53:00
11:53 PM,48.9,43.0,80,30.05,10.0,SSE,8.1,-,N/A,,Overcast,160,2013-01-01 05:53:00